星链-5972 (STARLINK-5972 )

导读 | 豆包AI

STARLINK-5972是美国SpaceX公司星链(Starlink)星座的一颗互联网通信卫星,于2023年4月27日发射。作为星链星座组网卫星之一,它运行在近地轨道,为全球提供高速卫星互联网接入服务,尤其支持偏远地区、灾害场景等网络覆盖,目前卫星状态正常,持续参与星座运行,服务全球宽带网络需求。

基本信息
目录编号:
56362
目录名称:
STARLINK-5972
国际标识:
2023-058AX
轨道中心:
EARTH
卫星名称:
星链-5972
卫星全名:
星链-5972 (STARLINK-5972 )
卫星状态:
在轨 (已飞行1053 天)
发射日期:
2023-04-27 UTC
国别 :
美国 (US)
星等 :
--
轨道信息
数据来源 国际轨道数据 AOE轨道数据
星历时间 2026-03-15T20:25:38+0800
8小时前
查看轨道信息
2026-03-11T17:00:00+0800
4天前
查看轨道信息
半长轴 6927.804km 6927.655km
偏心率 0.0002591 0.0001793
轨道倾角 97.603° 97.606°
近地点辐角 72.919° 81.886°
升交点赤经 76.967° 72.885°
平近点角 287.232° 156.990°
近地点 547.872km 548.275km
远地点 551.462km 550.761km
周期 95.643分钟 95.640分钟
每日圈数 15.055994 15.056478
详细信息
固有亮度:
5
最大亮度:
2.5
卫星平台:
Starlink v1.5
覆盖范围:
全球
运营商:
太空探索技术公司
运营商所在国:
美国
制造商(研发单位):
太空探索技术公司
制造商所在国:
美国
使用方式:
暂无
卫星简介
星链(Starlink)计划是由太空探索技术公司(SpaceX)提出的一个巨型低轨卫星互联网星座项目,计划在2019年至2024年间在太空搭建由约1.2万颗卫星组成的“星链”网络,其中1584颗将部署在地球上空550千米处的近地轨道,并从2020年开始工作。该卫星仍在工作。
2D轨道图
3D轨道图
轨道高度分析图
轨道倾角分析图
轨道综合分析图
查看轨道综合分析图